Location: Le Rocchette
(44.3500°N, 7.8333°E)
Time: 18:31:13
(UTC+00:00)

Cosmos 1937 Rocket - Pass Details

Date: 17 November 2019
Orbit: 747 x 780 km, 74.0° (Epoch: 11 December)

Event Time Altitude Azimuth Distance (km) Brightness Sun altitude
Exits shadow 03:46:40 - 178° (S) 2,371 6.0 -28.5°
Reaches altitude 10° 03:46:57 10° 178° (S) 2,263 5.9 -28.4°
Maximum altitude 03:51:51 48° 104° (ESE) 972 4.3 -27.5°
Drops below altitude 10° 03:56:47 10° 31° (NNE) 2,272 6.3 -26.7°
Sets 03:59:12 0° 26° (NNE) 3,201 7.0 -26.2°
